• In Uzbekistan
  • List of Countries
  • For 7 days
  • Water Temperature
  • Satellite Maps
  • Weather Map
  • Weather Widgets
  • user-avatar
    Login

    Hourly Weather Rugatino

    Today, 24 June, Monday

    Time Temperature Precipitation Wind Pressure Humidity
    00:00 +13°C° 0 mm 2 mps 752 mmHg 73%
    01:00 +12°C° 0 mm 2 mps 752 mmHg 73%
    02:00 +10°C° 0 mm 2 mps 753 mmHg 77%
    03:00 +12°C° 0 mm 2 mps 753 mmHg 76%
    04:00 +13°C° 0 mm 1 mps 753 mmHg 74%
    05:00 +13°C° 0 mm 1 mps 753 mmHg 73%
    06:00 +15°C° 0 mm 1 mps 753 mmHg 67%
    07:00 +18°C° 0 mm 1 mps 753 mmHg 61%
    08:00 +19°C° 0 mm 1 mps 753 mmHg 54%
    09:00 +20°C° 0 mm 1 mps 753 mmHg 51%
    10:00 +21°C° 0 mm 1 mps 753 mmHg 47%
    11:00 +22°C° 0 mm 1 mps 753 mmHg 43%
    12:00 +21°C° 0 mm 2 mps 753 mmHg 46%
    13:00 +20°C° 0 mm 3 mps 754 mmHg 50%
    14:00 +20°C° 0 mm 4 mps 754 mmHg 53%
    15:00 +20°C° 0 mm 4 mps 754 mmHg 55%
    16:00 +20°C° 0 mm 4 mps 753 mmHg 57%
    17:00 +20°C° 0 mm 4 mps 753 mmHg 59%
    18:00 +18°C° 0 mm 3 mps 754 mmHg 64%
    19:00 +16°C° 0 mm 2 mps 754 mmHg 69%
    20:00 +15°C° 0 mm 2 mps 754 mmHg 74%
    21:00 +14°C° 0 mm 2 mps 754 mmHg 75%
    22:00 +13°C° 0 mm 2 mps 754 mmHg 77%
    23:00 +12°C° 0 mm 2 mps 755 mmHg 79%

    Tomorrow, 25 June, Tuesday

    Time Temperature Precipitation Wind Pressure Humidity
    00:00 +10°C° 0 mm 2 mps 755 mmHg 80%
    01:00 +10°C° 0 mm 2 mps 755 mmHg 80%
    02:00 +9°C° 0 mm 2 mps 756 mmHg 81%
    03:00 +10°C° 0 mm 2 mps 756 mmHg 80%
    04:00 +10°C° 0 mm 2 mps 756 mmHg 79%
    05:00 +12°C° 0 mm 2 mps 756 mmHg 78%
    06:00 +13°C° 0 mm 2 mps 756 mmHg 73%
    07:00 +15°C° 0 mm 2 mps 756 mmHg 68%
    08:00 +17°C° 0 mm 2 mps 757 mmHg 63%
    09:00 +18°C° 0 mm 2 mps 757 mmHg 59%
    10:00 +19°C° 0 mm 3 mps 756 mmHg 55%
    11:00 +20°C° 0 mm 3 mps 756 mmHg 51%
    12:00 +20°C° 0 mm 2 mps 756 mmHg 52%
    13:00 +20°C° 0 mm 2 mps 756 mmHg 54%
    14:00 +20°C° 0 mm 2 mps 756 mmHg 56%
    15:00 +20°C° 0 mm 2 mps 756 mmHg 57%
    16:00 +20°C° 0 mm 2 mps 756 mmHg 58%
    17:00 +20°C° 0 mm 2 mps 756 mmHg 59%
    18:00 +20°C° 0 mm 1 mps 755 mmHg 63%
    19:00 +18°C° 0 mm 1 mps 755 mmHg 66%
    20:00 +16°C° 0 mm 1 mps 755 mmHg 70%
    21:00 +15°C° 0 mm 1 mps 755 mmHg 70%
    22:00 +15°C° 0 mm 1 mps 755 mmHg 69%
    23:00 +15°C° 0 mm 1 mps 755 mmHg 68%

    Day after tomorrow, 26 June, Wednesday

    Time Temperature Precipitation Wind Pressure Humidity
    00:00 +14°C° 0 mm 1 mps 755 mmHg 68%
    01:00 +14°C° 0 mm 1 mps 755 mmHg 67%
    02:00 +14°C° 0 mm 1 mps 755 mmHg 67%
    03:00 +14°C° 0 mm 1 mps 754 mmHg 70%
    04:00 +14°C° 0 mm 1 mps 754 mmHg 73%
    05:00 +14°C° 0 mm 1 mps 753 mmHg 77%
    06:00 +15°C° 0.1 mm 2 mps 753 mmHg 76%
    07:00 +14°C° 0.1 mm 3 mps 753 mmHg 75%
    08:00 +16°C° 0.1 mm 3 mps 753 mmHg 73%
    09:00 +16°C° 0.2 mm 3 mps 753 mmHg 73%
    10:00 +16°C° 0.2 mm 3 mps 753 mmHg 72%
    11:00 +17°C° 0.2 mm 3 mps 753 mmHg 72%
    12:00 +17°C° 0.4 mm 3 mps 752 mmHg 74%
    13:00 +17°C° 0.4 mm 3 mps 752 mmHg 75%
    14:00 +17°C° 0.4 mm 3 mps 752 mmHg 77%
    15:00 +17°C° 0.3 mm 3 mps 751 mmHg 75%
    16:00 +18°C° 0.3 mm 3 mps 751 mmHg 73%
    17:00 +18°C° 0.3 mm 3 mps 750 mmHg 72%
    18:00 +17°C° 0.1 mm 3 mps 750 mmHg 76%
    19:00 +16°C° 0.1 mm 2 mps 750 mmHg 81%
    20:00 +14°C° 0.1 mm 2 mps 749 mmHg 85%
    21:00 +13°C° 0 mm 1 mps 749 mmHg 88%
    22:00 +12°C° 0 mm 1 mps 749 mmHg 90%
    23:00 +11°C° 0 mm 1 mps 748 mmHg 92%

    27 June, Thursday

    Time Temperature Precipitation Wind Pressure Humidity
    00:00 +11°C° 0 mm 1 mps 748 mmHg 92%
    01:00 +10°C° 0 mm 1 mps 748 mmHg 93%
    02:00 +10°C° 0 mm 1 mps 747 mmHg 93%
    03:00 +11°C° 0 mm 1 mps 747 mmHg 92%
    04:00 +12°C° 0 mm 1 mps 747 mmHg 91%
    05:00 +12°C° 0 mm 1 mps 746 mmHg 90%
    06:00 +14°C° 0 mm 2 mps 745 mmHg 86%
    07:00 +15°C° 0 mm 2 mps 745 mmHg 83%
    08:00 +16°C° 0 mm 2 mps 744 mmHg 80%
    09:00 +14°C° 0.2 mm 3 mps 743 mmHg 83%
    10:00 +14°C° 0.2 mm 3 mps 743 mmHg 87%
    11:00 +13°C° 0.2 mm 4 mps 742 mmHg 91%
    12:00 +13°C° 0.2 mm 4 mps 741 mmHg 91%
    13:00 +12°C° 0.2 mm 5 mps 741 mmHg 91%
    14:00 +12°C° 0.2 mm 5 mps 740 mmHg 91%
    15:00 +12°C° 0.3 mm 5 mps 739 mmHg 92%
    16:00 +12°C° 0.3 mm 5 mps 738 mmHg 93%
    17:00 +10°C° 0.3 mm 5 mps 738 mmHg 94%
    18:00 +10°C° 0.3 mm 5 mps 737 mmHg 95%
    19:00 +11°C° 0.3 mm 4 mps 736 mmHg 96%
    20:00 +11°C° 0.3 mm 4 mps 736 mmHg 97%
    21:00 +11°C° 0.1 mm 3 mps 735 mmHg 97%
    22:00 +11°C° 0.1 mm 3 mps 735 mmHg 97%
    23:00 +11°C° 0.1 mm 3 mps 734 mmHg 98%

    28 June, Friday

    Time Temperature Precipitation Wind Pressure Humidity
    00:00 +12°C° 0.2 mm 2 mps 734 mmHg 98%
    01:00 +12°C° 0.2 mm 2 mps 733 mmHg 98%
    02:00 +12°C° 0.2 mm 1 mps 733 mmHg 98%
    03:00 +12°C° 0.1 mm 1 mps 732 mmHg 98%
    04:00 +13°C° 0.1 mm 2 mps 732 mmHg 98%
    05:00 +13°C° 0.1 mm 2 mps 731 mmHg 98%
    06:00 +13°C° 0.2 mm 2 mps 731 mmHg 98%
    07:00 +12°C° 0.2 mm 3 mps 730 mmHg 98%
    08:00 +12°C° 0.2 mm 3 mps 730 mmHg 98%
    09:00 +12°C° 0.8 mm 3 mps 730 mmHg 97%
    10:00 +12°C° 0.8 mm 3 mps 730 mmHg 97%
    11:00 +12°C° 0.8 mm 3 mps 730 mmHg 97%
    12:00 +12°C° 0.9 mm 3 mps 729 mmHg 96%
    13:00 +12°C° 0.9 mm 4 mps 729 mmHg 95%
    14:00 +12°C° 0.9 mm 4 mps 729 mmHg 95%
    15:00 +12°C° 0.7 mm 4 mps 729 mmHg 95%
    16:00 +12°C° 0.7 mm 4 mps 729 mmHg 95%
    17:00 +11°C° 0.7 mm 4 mps 729 mmHg 96%
    18:00 +11°C° 0.4 mm 4 mps 728 mmHg 96%
    19:00 +11°C° 0.4 mm 4 mps 728 mmHg 96%
    20:00 +10°C° 0.4 mm 4 mps 728 mmHg 96%
    21:00 +9°C° 0.3 mm 5 mps 728 mmHg 96%
    22:00 +9°C° 0.3 mm 5 mps 727 mmHg 97%
    23:00 +9°C° 0.3 mm 5 mps 727 mmHg 97%

    29 June, Saturday

    Time Temperature Precipitation Wind Pressure Humidity
    00:00 +9°C° 0.8 mm 5 mps 727 mmHg 97%
    01:00 +9°C° 0.8 mm 6 mps 727 mmHg 97%
    02:00 +9°C° 0.8 mm 6 mps 726 mmHg 97%
    03:00 +9°C° 1.3 mm 6 mps 726 mmHg 97%
    04:00 +9°C° 1.3 mm 6 mps 726 mmHg 97%
    05:00 +9°C° 1.3 mm 6 mps 726 mmHg 97%
    06:00 +9°C° 1.5 mm 6 mps 726 mmHg 97%
    07:00 +9°C° 1.5 mm 6 mps 725 mmHg 97%
    08:00 +9°C° 1.5 mm 5 mps 725 mmHg 97%
    09:00 +9°C° 0.7 mm 5 mps 726 mmHg 97%
    10:00 +10°C° 0.7 mm 4 mps 726 mmHg 97%
    11:00 +11°C° 0.7 mm 4 mps 726 mmHg 97%
    12:00 +11°C° 1.1 mm 4 mps 727 mmHg 97%
    13:00 +11°C° 1.1 mm 4 mps 727 mmHg 97%
    14:00 +11°C° 1.1 mm 3 mps 727 mmHg 97%
    15:00 +11°C° 0.8 mm 4 mps 727 mmHg 97%
    16:00 +11°C° 0.8 mm 4 mps 727 mmHg 97%
    17:00 +10°C° 0.8 mm 4 mps 728 mmHg 97%
    18:00 +10°C° 0.5 mm 4 mps 728 mmHg 97%
    19:00 +10°C° 0.5 mm 4 mps 728 mmHg 97%
    20:00 +10°C° 0.5 mm 4 mps 728 mmHg 98%
    21:00 +10°C° 0.6 mm 4 mps 728 mmHg 98%
    22:00 +10°C° 0.6 mm 4 mps 728 mmHg 98%
    23:00 +11°C° 0.6 mm 4 mps 729 mmHg 98%
    Show more